Simultaneous Nadir Overpasses (SNOs) Predictions

Prediction of SNOs between AQUA and METOP-B Satellite Orbit:

Table of predicted SNOs for the next 14.0 days since TLE Epoch: 5/28/2022
Index Date (AQUA) Time (AQUA) Lat,Lon (AQUA) SZA (AQUA ) Date (METOP-B) Time (METOP-B) Lat,Lon (METOP-B) SZA (METOP-B ) Distance(km) Time Diff (sec)
1 05/28/2022 23:05:22 -73.90, 8.26 127.71 05/28/2022 23:04:15 -73.89, 8.26 127.71 1.02 67
2 05/28/2022 23:54:50 73.95, 175.79 52.35 05/28/2022 23:54:54 73.93, 175.70 52.33 3.32 4
3 05/29/2022 00:44:19 -74.14, -17.00 127.46 05/29/2022 00:45:31 -74.17, -16.40 127.46 18.60 72
4 05/31/2022 18:39:08 -73.94, 74.74 128.08 05/31/2022 18:38:37 -73.92, 74.74 128.09 2.23 31
5 05/31/2022 19:28:36 74.00,-117.74 51.98 05/31/2022 19:29:15 74.01,-117.72 51.99 1.52 39
6 06/03/2022 13:23:27 73.89, -26.20 51.51 06/03/2022 13:22:19 73.90, -26.25 51.53 1.77 68
7 06/03/2022 14:12:54 -73.97, 141.26 128.41 06/03/2022 14:13:00 -73.94, 141.19 128.43 3.18 6
8 06/03/2022 15:02:24 74.13, -51.47 51.76 06/03/2022 15:03:36 74.12, -51.03 51.74 13.38 72
9 06/06/2022 08:57:13 73.95, 40.24 51.27 06/06/2022 08:56:41 73.96, 40.30 51.28 2.13 32
10 06/06/2022 09:46:40 -74.03,-152.30 128.66 06/06/2022 09:47:22 -74.01,-152.25 128.68 2.44 42
11 06/09/2022 03:41:29 -73.93, -60.78 129.01 06/09/2022 03:40:24 -73.94, -60.68 129.00 3.24 65
12 06/09/2022 04:30:57 73.99, 106.72 51.06 06/09/2022 04:31:03 73.96, 106.71 51.02 3.84 6



Historial Predications of SNOs between AQUA and METOP-B
